This is the latest recevied weather packets stored in our database for station/object HB0RER-13. If no packets are shown the sender has not sent any weather packets the latest 10 day(s).
| Time | Temp. | Humidity | Pressure | Rain* | Wind** | Luminosity | Snow |
|---|---|---|---|---|---|---|---|
| 1777582723 | 11.11° C | 41% | 1023.6 hPa | 0 mm | - | - | - |
| 1777581499 | 11.67° C | 37% | 1023.3 hPa | 0 mm | - | - | - |
| 1777580897 | 11.67° C | 37% | 1023.2 hPa | 0 mm | - | - | - |
| 1777580295 | 12.22° C | 36% | 1023.1 hPa | 0 mm | - | - | - |
| 1777575479 | 13.33° C | 33% | 1022.3 hPa | 0 mm | - | - | - |
| 1777574275 | 13.89° C | 33% | 1022 hPa | 0 mm | - | - | - |
| 1777573674 | 14.44° C | 33% | 1022 hPa | 0 mm | - | - | - |
| 1777571868 | 15.56° C | 32% | 1021.7 hPa | 0 mm | - | - | - |
| 1777567654 | 18.33° C | 28% | 1021.6 hPa | 0 mm | - | - | - |
| 1777565266 | 18.33° C | 29% | 1021.4 hPa | 0 mm | - | - | - |
| 1777562839 | 18.89° C | 30% | 1021.3 hPa | 0 mm | - | - | - |
| 1777558644 | 18.89° C | 32% | 1021.3 hPa | 0 mm | - | - | - |
| 1777551420 | 18.33° C | 39% | 1021.8 hPa | 0 mm | - | - | - |
| 1777547788 | 17.22° C | 40% | 1022.3 hPa | 0 mm | - | - | - |
| 1777547185 | 17.22° C | 43% | 1022.4 hPa | 0 mm | - | - | - |
| 1777544797 | 16.11° C | 47% | 1022.6 hPa | 0 mm | - | - | - |
| 1777541768 | 14.44° C | 51% | 1023 hPa | 0 mm | - | - | - |
| 1777541165 | 14.44° C | 51% | 1023.2 hPa | 0 mm | - | - | - |
| 1777536951 | 13.89° C | 50% | 1023.1 hPa | 0 mm | - | - | - |
| 1777535166 | 13.89° C | 52% | 1023.1 hPa | 0 mm | - | - | - |
| 1777534543 | 13.33° C | 52% | 1023.2 hPa | 0 mm | - | - | - |
| 1777533941 | 13.33° C | 52% | 1023.3 hPa | 0 mm | - | - | - |
| 1777526116 | 8.33° C | 83% | 1022.8 hPa | 0 mm | - | - | - |
| 1777519514 | 6.11° C | 76% | 1022.2 hPa | 0 mm | - | - | - |
| 1777518892 | 6.11° C | 77% | 1022.1 hPa | 0 mm | - | - | - |
* Rain latest hour (hover to see other rain measurements)
** Current wind speed in m/s (hover to see current wind gust speed)